1537221600.77,13611,20.31,74676.5,4.69,-19.65,-19.81,0,*78
1537221602.05,13612,20.25,74674.5,4.67,-19.65,-19.85,0,*71
1537221603.27,13613,20.25,74676.3,4.69,-19.47,-19.65,0,*70
1537221604.55,13614,20.25,74678.8,4.67,-19.65,-19.85,0,*77
1537221605.83,13615,20.31,74678.5,4.67,-19.65,-19.85,0,*76
1537221607.02,13616,20.25,74678.5,4.69,-19.47,-19.51,0,*72
1537221608.31,13617,20.25,74676.3,4.67,-19.41,-19.57,0,*7D
1537221609.56,13618,20.31,74680.8,4.69,-19.61,-19.81,0,*75
1537221610.79,13619,20.25,74678.5,4.73,-19.57,-19.71,0,*75
1537221612.02,13620,20.25,74676.3,4.69,-19.61,-19.91,0,*7F
1537221613.25,13621,20.25,74676.3,4.73,-19.57,-19.71,0,*7E
1537221614.48,13622,20.25,74678.0,4.67,-19.71,-19.95,0,*76
1537221615.73,13623,20.31,74680.0,4.69,-19.65,-19.81,0,*79
1537221616.98,13624,20.25,74676.8,4.69,-19.61,-19.81,0,*7A
1537221618.21,13625,20.25,74678.8,4.67,-19.71,-19.99,0,*7D
1537221619.41,13626,20.31,74678.5,4.73,-19.75,-19.95,0,*73
1537221620.66,13627,20.25,74676.8,4.67,-19.81,-19.99,0,*70
1537221621.86,13628,20.25,74678.3,4.73,-19.75,-19.95,0,*7D
1537221623.13,13629,20.25,74676.0,4.67,-19.85,-20.15,0,*74
1537221624.38,13630,20.31,74678.3,4.69,-19.61,-19.81,0,*7F
1537221625.58,13631,20.25,74676.8,4.69,-19.51,-19.75,0,*76
1537221626.8,13632,20.25,74676.0,4.69,-19.81,-19.99,0,*7A
1537221628.04,13633,20.25,74678.0,4.67,-19.81,-19.99,0,*75
1537221629.24,13634,20.25,74678.3,4.69,-19.91,-19.99,0,*7D
1537221630.45,13635,20.31,74682.3,4.69,-19.81,-19.99,0,*7D
1537221631.7,13636,20.25,74678.0,4.67,-19.81,-19.95,0,*7C
1537221632.93,13637,20.25,74678.5,4.67,-19.71,-19.99,0,*7E
1537221634.16,13638,20.25,74676.8,4.67,-19.99,-20.05,0,*78
1537221635.4,13639,20.25,74676.3,4.67,-19.81,-20.05,0,*70
1537221636.6,13640,20.25,74678.0,4.65,-19.71,-20.05,0,*73
1537221637.8,13641,20.25,74676.0,4.65,-19.75,-19.91,0,*71
1537221639.08,13642,20.25,74678.8,4.67,-19.57,-19.81,0,*71
1537221640.32,13643,20.25,74678.8,4.67,-19.81,-19.95,0,*7E
1537221641.52,13644,20.25,74676.8,4.69,-19.91,-20.09,0,*79
1537221642.77,13645,20.25,74676.5,4.67,-19.99,-20.15,0,*73
1537221644.01,13646,20.25,74680.0,4.67,-19.81,-19.99,0,*77
1537221645.27,13647,20.25,74676.5,4.67,-19.99,-20.19,0,*7D
1537221646.52,13648,20.25,74676.3,4.67,-19.99,-20.19,0,*72
1537221647.77,13649,20.25,74676.3,4.67,-19.95,-20.15,0,*73
1537221649.0,13650,20.25,74678.0,4.67,-19.99,-20.29,0,*78
1537221650.2,13651,20.31,74680.5,4.65,-20.09,-20.25,0,*74
1537221651.42,13652,20.25,74678.0,4.65,-20.09,-20.19,0,*78
1537221652.63,13653,20.25,74674.3,4.65,-20.09,-20.35,0,*77
1537221653.85,13654,20.25,74674.0,4.65,-19.99,-20.19,0,*7D
1537221655.1,13655,20.25,74676.3,4.63,-19.85,-20.09,0,*76
1537221656.3,13656,20.25,74678.8,4.65,-19.91,-20.09,0,*76
1537221657.55,13657,20.25,74678.8,4.63,-19.85,-20.09,0,*74
1537221658.78,13658,20.25,74676.3,4.63,-19.75,-19.99,0,*77
1537221659.98,13659,20.25,74676.3,4.65,-19.71,-19.75,0,*76
1537221661.21,13660,20.25,74678.8,4.63,-19.71,-19.91,0,*70
1537221662.46,13661,20.25,74676.8,4.63,-19.85,-19.99,0,*72
1537221663.68,13662,20.25,74678.0,4.63,-19.91,-20.09,0,*77
1537221664.91,13663,20.25,74676.5,4.63,-19.91,-20.09,0,*76
1537221666.16,13664,20.25,74676.0,4.63,-19.85,-20.09,0,*74
1537221667.36,13665,20.25,74678.5,4.65,-19.91,-20.09,0,*76
1537221668.59,13666,20.25,74678.5,4.63,-19.75,-20.05,0,*75
1537221669.81,13667,20.25,74678.8,4.65,-19.85,-20.05,0,*7D
1537221671.0,13668,20.25,74676.3,4.65,-19.91,-20.09,0,*7B
1537221672.23,13669,20.25,74678.0,4.63,-19.75,-20.05,0,*7A
1537221673.46,13670,20.31,74680.3,4.63,-19.75,-20.09,0,*7E
1537221674.68,13671,20.25,74676.5,4.65,-19.99,-20.19,0,*7A
1537221675.93,13672,20.25,74678.0,4.63,-19.85,-20.09,0,*73
1537221677.16,13673,20.25,74674.8,4.63,-19.75,-19.99,0,*7E
1537221678.39,13674,20.25,74674.5,4.63,-19.91,-20.09,0,*70
1537221679.59,13675,20.25,74678.3,4.65,-19.99,-20.09,0,*7F
1537221680.84,13676,20.25,74678.0,4.63,-19.71,-19.85,0,*72
1537221682.12,13677,20.31,74680.5,4.63,-19.61,-19.85,0,*72
1537221683.35,13678,20.25,74676.3,4.63,-19.75,-19.91,0,*7D
1537221684.58,13679,20.25,74678.0,4.63,-19.71,-19.91,0,*78
1537221685.83,13680,20.25,74676.3,4.63,-19.71,-19.85,0,*7B
1537221687.09,13681,20.31,74682.3,4.63,-19.57,-19.71,0,*75
1537221688.32,13682,20.25,74676.5,4.63,-19.71,-19.91,0,*7C
1537221689.57,13683,20.25,74680.3,4.63,-19.71,-19.85,0,*78
1537221690.8,13684,20.31,74680.0,4.65,-19.61,-19.91,0,*7D
1537221692.05,13685,20.25,74678.3,4.63,-19.85,-20.05,0,*77
1537221693.3,13686,20.25,74676.3,4.63,-19.71,-19.85,0,*7D
1537221694.58,13687,20.25,74678.3,4.63,-19.61,-19.85,0,*7D
1537221695.81,13688,20.25,74678.5,4.63,-19.91,-20.09,0,*73
1537221697.04,13689,20.25,74678.3,4.63,-19.71,-19.91,0,*77
1537221698.26,13690,20.25,74678.0,4.65,-19.85,-20.09,0,*79
1537221699.51,13691,20.25,74674.3,4.63,-20.05,-20.19,0,*7D
1537221700.74,13692,20.25,74678.5,4.63,-19.71,-19.99,0,*75
1537221701.96,13693,20.25,74678.3,4.63,-19.75,-19.91,0,*78
1537221703.16,13694,20.25,74676.5,4.65,-19.91,-20.09,0,*78
1537221704.39,13695,20.25,74678.8,4.63,-19.75,-19.99,0,*76
1537221705.64,13696,20.25,74678.5,4.63,-19.85,-20.09,0,*79
1537221706.89,13697,20.25,74680.3,4.63,-19.71,-19.85,0,*7D
1537221708.12,13698,20.25,74678.3,4.65,-19.61,-19.75,0,*7A
1537221709.4,13699,20.25,74674.0,4.63,-19.61,-19.85,0,*72
1537221710.68,13700,20.25,74678.0,4.63,-19.61,-19.85,0,*73
1537221711.94,13701,20.25,74678.8,4.63,-19.61,-19.75,0,*7D
1537221713.16,13702,20.25,74680.3,4.65,-19.61,-19.75,0,*78
1537221714.39,13703,20.25,74674.5,4.65,-19.47,-19.61,0,*78
1537221715.61,13704,20.25,74678.0,4.65,-19.61,-19.75,0,*7E
1537221716.84,13705,20.25,74678.8,4.65,-19.47,-19.61,0,*7E
1537221718.06,13706,20.25,74676.3,4.65,-19.61,-19.75,0,*7C
1537221719.29,13707,20.25,74678.8,4.65,-19.61,-19.99,0,*7F
1537221720.51,13708,20.25,74676.8,4.63,-19.75,-19.99,0,*73
1537221721.77,13709,20.25,74678.8,4.67,-19.57,-19.71,0,*70
1537221723.0,13710,20.25,74676.5,4.63,-19.47,-19.71,0,*7D
1537221724.25,13711,20.25,74678.8,4.65,-19.31,-19.61,0,*7A
1537221725.5,13712,20.25,74676.5,4.67,-19.23,-19.51,0,*7B
1537221726.76,13713,20.25,74680.5,4.65,-19.41,-19.57,0,*7A
1537221728.0,13714,20.25,74676.5,4.65,-19.41,-19.61,0,*78
1537221729.23,13715,20.25,74674.0,4.65,-19.47,-19.61,0,*7F
1537221730.45,13716,20.25,74676.8,4.65,-19.57,-19.75,0,*78
1537221731.71,13717,20.25,74676.0,4.63,-19.47,-19.61,0,*7B
1537221732.96,13718,20.25,74678.0,4.63,-19.61,-19.75,0,*75
1537221734.19,13719,20.25,74678.0,4.65,-19.61,-19.75,0,*72
1537221735.44,13720,20.25,74676.5,4.67,-19.85,-20.05,0,*7D
1537221736.67,13721,20.25,74678.8,4.67,-19.71,-19.99,0,*78
1537221737.89,13722,20.25,74678.3,4.65,-19.91,-20.19,0,*75
1537221739.12,13723,20.25,74674.8,4.63,-20.05,-20.25,0,*7A
1537221740.31,13724,20.25,74678.3,4.65,-19.91,-20.05,0,*7E
1537221741.53,13725,20.25,74678.0,4.65,-19.85,-20.09,0,*76
1537221742.73,13726,20.25,74678.0,4.65,-19.75,-20.05,0,*76
1537221743.95,13727,20.25,74678.8,4.65,-19.91,-20.19,0,*70
1537221745.15,13728,20.25,74678.5,4.65,-19.91,-20.09,0,*7E
1537221746.35,13729,20.25,74676.3,4.65,-19.99,-20.09,0,*77
1537221747.58,13730,20.25,74678.8,4.65,-19.99,-20.19,0,*7E
1537221748.83,13731,20.25,74678.0,4.63,-19.85,-20.05,0,*79
1537221750.06,13732,20.25,74678.8,4.63,-19.71,-19.99,0,*7E
1537221751.31,13733,20.25,74678.0,4.63,-19.61,-19.71,0,*78
1537221752.6,13734,20.25,74680.3,4.63,-19.31,-19.57,0,*7E
1537221753.89,13735,20.25,74676.3,4.63,-19.31,-19.57,0,*7F
1537221755.12,13736,20.25,74678.3,4.65,-19.61,-19.75,0,*7F
1537221756.37,13737,20.25,74678.8,4.65,-19.61,-19.85,0,*71
1537221757.57,13738,20.25,74678.3,4.65,-19.71,-19.91,0,*7A
1537221758.82,13739,20.25,74676.3,4.65,-19.61,-19.85,0,*7F
1537221760.06,13740,20.25,74678.5,4.67,-19.85,-19.99,0,*74
1537221761.28,13741,20.25,74674.0,4.65,-20.05,-20.19,0,*77
1537221762.53,13742,20.25,74674.5,4.63,-20.05,-20.19,0,*72
1537221763.75,13743,20.25,74678.5,4.65,-19.95,-20.15,0,*7A
1537221765.03,13744,20.25,74678.8,4.63,-19.61,-19.85,0,*73
1537221766.28,13745,20.25,74678.5,4.67,-19.65,-20.09,0,*7C
1537221767.49,13746,20.25,74676.5,4.65,-19.71,-20.05,0,*74
1537221768.69,13747,20.25,74676.5,4.65,-19.99,-20.09,0,*7F
1537221769.93,13748,20.25,74676.8,4.63,-20.09,-20.19,0,*74
1537221771.16,13749,20.25,74674.5,4.63,-20.05,-20.25,0,*76
1537221772.38,13750,20.25,74676.8,4.63,-20.05,-20.25,0,*7E
1537221773.59,13751,20.25,74674.3,4.61,-19.75,-19.95,0,*71
1537221774.84,13752,20.25,74678.0,4.63,-19.85,-20.05,0,*7C
1537221776.07,13753,20.25,74678.0,4.63,-19.71,-19.91,0,*71
1537221777.33,13754,20.25,74672.5,4.63,-19.57,-19.75,0,*78
1537221778.61,13755,20.25,74676.3,4.63,-19.61,-19.85,0,*73
1537221779.83,13756,20.25,74676.3,4.65,-19.61,-19.75,0,*79
1537221781.12,13757,20.25,74678.3,4.63,-19.57,-19.61,0,*7E
1537221782.34,13758,20.25,74678.3,4.63,-19.47,-19.71,0,*71
1537221783.59,13759,20.25,74678.3,4.63,-19.41,-19.51,0,*74
1537221784.85,13760,20.25,74672.5,4.63,-19.61,-19.75,0,*7A
1537221786.1,13761,20.25,74676.8,4.63,-19.47,-19.61,0,*7A
1537221787.36,13762,20.25,74678.8,4.63,-19.47,-19.61,0,*79
1537221788.61,13763,20.25,74674.0,4.63,-19.57,-19.71,0,*78
1537221789.83,13764,20.25,74676.8,4.65,-19.41,-19.71,0,*7E
1537221791.06,13765,20.25,74674.5,4.65,-19.47,-19.57,0,*7D
1537221792.31,13766,20.25,74674.8,4.65,-19.41,-19.57,0,*78
1537221793.6,13767,20.25,74676.3,4.67,-19.27,-19.41,0,*7C
1537221794.85,13768,20.25,74676.5,4.65,-19.41,-19.61,0,*73
1537221796.1,13769,20.25,74676.3,4.65,-19.41,-19.61,0,*72
1537221797.32,13770,20.25,74678.8,4.65,-19.61,-19.91,0,*77
1537221798.52,13771,20.25,74674.5,4.65,-19.71,-20.05,0,*70
1537221799.72,13772,20.25,74678.8,4.65,-19.91,-20.09,0,*71
1537221800.92,13773,20.25,74678.0,4.65,-19.71,-19.99,0,*7D
1537221802.2,13774,20.25,74676.3,4.63,-19.57,-19.85,0,*75
1537221803.45,13775,20.25,74678.8,4.65,-19.41,-19.61,0,*7F
1537221804.71,13776,20.25,74676.3,4.67,-19.27,-19.37,0,*7D
1537221805.95,13777,20.25,74674.0,4.67,-19.13,-19.37,0,*7B
1537221807.21,13778,20.25,74678.0,4.67,-19.37,-19.65,0,*75
1537221808.43,13779,20.25,74672.5,4.65,-19.57,-19.75,0,*71
1537221809.7,13780,20.25,74674.3,4.67,-19.37,-19.57,0,*73
1537221810.95,13781,20.25,74674.8,4.67,-19.51,-19.65,0,*73
1537221812.21,13782,20.25,74678.3,4.67,-19.51,-19.65,0,*70
1537221813.49,13783,20.25,74678.8,4.67,-19.57,-19.81,0,*7D
1537221814.72,13784,20.25,74676.5,4.67,-19.51,-19.71,0,*73
1537221815.97,13785,20.25,74674.3,4.67,-19.37,-19.65,0,*77
1537221817.23,13786,20.25,74678.0,4.67,-19.57,-19.71,0,*77
1537221818.51,13787,20.25,74676.5,4.67,-19.57,-19.85,0,*7D
1537221819.76,13788,20.25,74676.5,4.69,-19.65,-19.81,0,*79
1537221821.01,13789,20.25,74678.0,4.69,-19.61,-19.81,0,*7C
1537221822.27,13790,20.25,74674.0,4.67,-19.51,-19.65,0,*73
1537221823.54,13791,20.25,74678.3,4.67,-19.41,-19.65,0,*73
1537221824.77,13792,20.25,74676.8,4.69,-19.37,-19.65,0,*7F
1537221826.0,13793,20.25,74676.3,4.69,-19.17,-19.31,0,*7D
1537221827.26,13794,20.25,74678.0,4.67,-19.07,-19.27,0,*72
1537221828.48,13795,20.25,74676.8,4.69,-19.17,-19.31,0,*7B
1537221829.7,13796,20.25,74676.3,4.69,-19.03,-19.23,0,*7E
1537221830.92,13797,20.25,74674.8,4.69,-19.07,-19.23,0,*7B
1537221832.15,13798,20.25,74674.8,4.73,-19.17,-19.27,0,*7A
1537221833.39,13799,20.25,74674.0,4.73,-19.47,-19.57,0,*79
1537221834.64,13800,20.25,74674.3,4.73,-19.41,-19.57,0,*70
1537221835.84,13801,20.25,74676.5,4.73,-19.47,-19.71,0,*73
1537221837.04,13802,20.25,74678.5,4.73,-19.47,-19.75,0,*74
1537221838.27,13803,20.25,74674.0,4.73,-19.57,-19.75,0,*74
1537221839.52,13804,20.25,74674.0,4.73,-19.57,-19.85,0,*7C
1537221840.75,13805,20.25,74676.5,4.73,-19.57,-19.75,0,*72
1537221842.01,13806,20.25,74676.8,4.73,-19.27,-19.31,0,*76
1537221843.29,13807,20.25,74672.8,4.75,-19.41,-19.57,0,*71
1537221844.52,13808,20.25,74678.5,4.73,-19.47,-19.61,0,*7B
1537221845.74,13809,20.25,74676.8,4.73,-19.47,-19.85,0,*70
1537221846.97,13810,20.25,74676.8,4.73,-19.57,-19.75,0,*76
1537221848.2,13811,20.25,74674.0,4.73,-19.57,-19.75,0,*77
1537221849.4,13812,20.25,74674.8,4.73,-19.91,-20.05,0,*73
1537221850.62,13813,20.25,74672.5,4.73,-19.85,-20.09,0,*7B
1537221851.84,13814,20.25,74672.8,4.73,-19.85,-20.05,0,*70
1537221853.07,13815,20.25,74672.3,4.73,-19.85,-20.05,0,*71
1537221854.27,13816,20.25,74672.0,4.73,-19.91,-20.09,0,*7B
1537221855.49,13817,20.25,74676.3,4.73,-19.85,-20.05,0,*73
1537221856.69,13818,20.25,74672.5,4.73,-19.91,-20.09,0,*75
1537221857.91,13819,20.25,74672.0,4.73,-20.05,-20.19,0,*72
1537221859.11,13820,20.25,74674.0,4.69,-19.99,-20.29,0,*7F
1537221860.31,13821,20.25,74674.5,4.69,-20.29,-20.43,0,*73
1537221861.53,13822,20.25,74672.5,4.67,-20.29,-20.43,0,*7E
1537221862.77,13823,20.25,74672.3,4.73,-20.19,-20.35,0,*78
1537221863.99,13824,20.25,74676.3,4.65,-20.29,-20.49,0,*70
1537221865.26,13825,20.25,74674.3,4.67,-20.19,-20.35,0,*7B
1537221866.51,13826,20.25,74674.3,4.67,-19.99,-20.15,0,*78
1537221867.77,13827,20.25,74672.5,4.67,-19.99,-20.19,0,*75
1537221869.04,13828,20.25,74674.5,4.67,-20.15,-20.35,0,*7A
1537221870.28,13829,20.25,74672.3,4.67,-20.15,-20.29,0,*76
1537221871.5,13830,20.25,74676.3,4.65,-19.85,-20.05,0,*71
1537221872.73,13831,20.25,74674.5,4.63,-19.75,-19.99,0,*76
1537221873.96,13832,20.25,74672.5,4.67,-19.95,-20.05,0,*70
1537221875.21,13833,20.25,74672.3,4.67,-19.85,-20.05,0,*70
1537221876.4,13834,20.25,74674.3,4.65,-19.91,-20.09,0,*7C
1537221877.6,13835,20.25,74676.5,4.65,-20.05,-20.25,0,*74
1537221878.82,13836,20.25,74674.5,4.63,-20.05,-20.25,0,*71
1537221880.07,13837,20.25,74674.5,4.63,-20.05,-20.19,0,*7F
1537221881.27,13838,20.25,74676.5,4.65,-20.09,-20.25,0,*75
1537221882.49,13839,20.25,74672.5,4.65,-20.19,-20.25,0,*75
1537221883.76,13840,20.25,74674.0,4.63,-20.19,-20.35,0,*7C
1537221885.01,13841,20.25,74672.0,4.63,-20.25,-20.35,0,*72
1537221886.28,13842,20.25,74674.0,4.63,-20.19,-20.35,0,*7E
1537221887.5,13843,20.25,74678.3,4.61,-19.81,-20.05,0,*75
1537221888.7,13844,20.25,74672.5,4.65,-19.91,-20.09,0,*7B
1537221889.92,13845,20.25,74674.8,4.63,-19.91,-20.09,0,*7C
1537221891.13,13846,20.25,74676.8,4.61,-19.91,-20.09,0,*7D
1537221892.35,13847,20.25,74674.0,4.61,-19.95,-20.15,0,*75
1537221893.61,13848,20.25,74674.3,4.63,-19.71,-19.85,0,*71
1537221894.86,13849,20.25,74676.8,4.63,-19.75,-19.85,0,*74
1537221896.11,13850,20.25,74672.8,4.63,-19.47,-19.61,0,*77
1537221897.33,13851,20.25,74676.0,4.65,-19.47,-19.61,0,*70
1537221898.59,13852,20.25,74674.8,4.63,-19.47,-19.61,0,*75
1537221899.84,13853,20.25,74674.3,4.63,-19.41,-19.47,0,*76
1537221901.09,13854,20.25,74676.5,4.63,-19.57,-19.75,0,*77
1537221902.35,13855,20.25,74674.0,4.63,-19.47,-19.61,0,*72
1537221903.57,13856,20.25,74674.8,4.63,-19.47,-19.71,0,*70
1537221904.77,13857,20.25,74676.0,4.65,-19.47,-19.71,0,*77
1537221906.02,13858,20.25,74674.8,4.65,-19.41,-19.57,0,*7A
1537221907.25,13859,20.25,74672.0,4.67,-19.37,-19.51,0,*7E
1537221908.48,13860,20.25,74674.8,4.67,-19.37,-19.51,0,*74
1537221909.74,13861,20.25,74672.3,4.67,-19.37,-19.65,0,*72
1537221910.99,13862,20.25,74674.3,4.65,-19.61,-19.85,0,*7E
1537221912.25,13863,20.25,74672.8,4.63,-19.61,-19.75,0,*76
1537221913.44,13864,20.25,74676.3,4.65,-19.47,-19.71,0,*77
1537221914.64,13865,20.25,74674.5,4.65,-19.47,-19.71,0,*76
1537221915.9,13866,20.25,74674.3,4.67,-19.37,-19.41,0,*73
1537221917.16,13867,20.25,74672.3,4.67,-19.37,-19.57,0,*75
1537221918.39,13868,20.25,74674.3,4.67,-19.37,-19.51,0,*7C
1537221919.65,13869,20.25,74674.5,4.67,-19.51,-19.65,0,*7A
1537221920.9,13870,20.25,74676.8,4.67,-19.51,-19.65,0,*72
1537221922.13,13871,20.25,74674.0,4.69,-19.37,-19.65,0,*7D
1537221923.36,13872,20.25,74678.5,4.69,-19.47,-19.65,0,*79
1537221924.64,13873,20.25,74676.3,4.67,-19.57,-19.81,0,*7D
1537221925.83,13874,20.25,74676.5,4.69,-19.47,-19.51,0,*78
1537221927.06,13875,20.25,74676.0,4.69,-19.47,-19.65,0,*7E
1537221928.32,13876,20.25,74676.5,4.67,-19.51,-19.57,0,*75
1537221929.55,13877,20.25,74672.3,4.67,-19.37,-19.51,0,*72
1537221930.78,13878,20.25,74676.8,4.67,-19.37,-19.51,0,*7D
1537221932.04,13879,20.25,74672.3,4.69,-19.61,-19.65,0,*76
1537221933.29,13880,20.25,74674.8,4.73,-19.41,-19.61,0,*7D
1537221934.51,13881,20.25,74676.3,4.73,-19.47,-19.61,0,*7A
1537221935.71,13882,20.25,74674.0,4.69,-19.47,-19.51,0,*71
1537221936.94,13883,20.25,74672.3,4.69,-19.51,-19.61,0,*74
1537221938.17,13884,20.25,74674.0,4.69,-19.51,-19.65,0,*77
1537221939.37,13885,20.25,74672.8,4.69,-19.37,-19.51,0,*71
1537221940.63,13886,20.25,74672.3,4.73,-19.27,-19.41,0,*79
1537221941.89,13887,20.25,74674.8,4.73,-19.31,-19.57,0,*78
1537221943.15,13888,20.25,74672.8,4.69,-19.61,-19.65,0,*78
1537221944.4,13889,20.25,74674.8,4.69,-19.65,-19.81,0,*77
1537221945.63,13890,20.25,74674.0,4.73,-19.57,-19.75,0,*7E
1537221946.88,13891,20.25,74672.5,4.73,-19.41,-19.61,0,*7D
1537221948.11,13892,20.25,74670.5,4.73,-19.61,-19.95,0,*77
1537221949.34,13893,20.25,74674.8,4.73,-19.57,-19.75,0,*7D
1537221950.57,13894,20.25,74674.3,4.73,-19.57,-19.75,0,*7A
1537221951.77,13895,20.25,74672.8,4.69,-19.51,-19.75,0,*76
1537221953.0,13896,20.25,74678.0,4.69,-19.61,-19.75,0,*76
1537221954.23,13897,20.25,74672.0,4.69,-19.47,-19.65,0,*72
1537221955.45,13898,20.25,74674.8,4.69,-19.51,-19.61,0,*7E
1537221956.71,13899,20.25,74674.3,4.73,-19.41,-19.57,0,*70
1537221957.94,13900,20.25,74672.0,4.73,-19.57,-19.75,0,*76
1537221959.19,13901,20.25,74674.0,4.73,-19.61,-19.85,0,*7D
1537221960.42,13902,20.25,74674.0,4.73,-19.85,-19.95,0,*75
1537221961.62,13903,20.25,74674.5,4.73,-19.91,-20.05,0,*72
1537221962.82,13904,20.25,74676.3,4.73,-19.71,-19.95,0,*78
1537221964.05,13905,20.25,74672.3,4.69,-19.95,-20.15,0,*7A
1537221965.24,13906,20.25,74674.3,4.69,-20.09,-20.25,0,*75
1537221966.45,13907,20.25,74672.0,4.69,-19.99,-20.25,0,*77
1537221967.7,13908,20.25,74678.0,4.67,-19.95,-20.15,0,*79
1537221968.93,13909,20.25,74674.5,4.67,-19.71,-19.95,0,*70
1537221970.16,13910,20.25,74672.3,4.69,-19.65,-19.71,0,*79
1537221971.39,13911,20.25,74672.5,4.67,-19.71,-19.99,0,*75
1537221972.61,13912,20.25,74678.3,4.69,-19.95,-20.15,0,*7C
1537221973.84,13913,20.25,74672.3,4.67,-19.95,-20.05,0,*72
1537221975.06,13914,20.25,74674.8,4.69,-19.81,-19.95,0,*7D
1537221976.31,13915,20.25,74676.3,4.67,-19.85,-19.99,0,*7A
1537221977.54,13916,20.25,74676.8,4.67,-19.71,-19.95,0,*7E
1537221978.82,13917,20.25,74674.0,4.67,-19.57,-19.81,0,*7E
1537221980.08,13918,20.25,74672.0,4.67,-19.57,-19.71,0,*7E
1537221981.36,13919,20.25,74676.0,4.67,-19.57,-19.81,0,*70
1537221982.6,13920,20.25,74674.5,4.67,-19.81,-19.95,0,*74
1537221983.85,13921,20.25,74674.3,4.67,-19.71,-19.85,0,*7B
1537221985.08,13922,20.25,74678.5,4.69,-19.51,-19.65,0,*7A
1537221986.31,13923,20.25,74678.3,4.69,-19.57,-19.75,0,*7C
1537221987.54,13924,20.25,74676.3,4.67,-19.71,-19.99,0,*73
1537221988.82,13925,20.25,74672.5,4.67,-19.65,-19.81,0,*7E
1537221990.05,13926,20.25,74674.3,4.69,-19.31,-19.37,0,*7F
1537221991.25,13927,20.25,74672.0,4.69,-19.37,-19.51,0,*78
1537221992.51,13928,20.25,74672.8,4.67,-19.27,-19.51,0,*78
1537221993.8,13929,20.25,74676.0,4.67,-19.27,-19.41,0,*78
1537221995.0,13930,20.25,74672.8,4.73,-18.99,-19.13,0,*76
1537221996.23,13931,20.25,74674.3,4.69,-19.23,-19.51,0,*7A
1537221997.45,13932,20.25,74672.8,4.73,-19.41,-19.47,0,*71
1537221998.71,13933,20.25,74674.3,4.73,-19.27,-19.31,0,*71
1537221999.94,13934,20.25,74672.3,4.73,-19.47,-19.57,0,*70
1537222001.17,13935,20.25,74672.3,4.73,-19.57,-19.71,0,*74
1537222002.42,13936,20.25,74672.5,4.69,-19.61,-19.65,0,*7C
1537222003.66,13937,20.25,74674.3,4.69,-19.31,-19.37,0,*7F
1537222004.86,13938,20.25,74670.5,4.69,-19.17,-19.37,0,*74
1537222006.08,13939,20.25,74672.5,4.73,-19.03,-19.27,0,*7A
1537222007.28,13940,20.25,74672.5,4.73,-19.03,-19.13,0,*73
1537222008.51,13941,20.25,74674.3,4.73,-19.03,-19.27,0,*75
1537222009.76,13942,20.25,74672.0,4.73,-19.27,-19.31,0,*77
1537222010.99,13943,20.25,74670.3,4.73,-19.41,-19.47,0,*77
1537222012.27,13944,20.25,74672.3,4.75,-19.27,-19.41,0,*70
1537222013.51,13945,20.25,74674.8,4.77,-19.27,-19.37,0,*72
1537222014.74,13946,20.25,74674.5,4.75,-19.47,-19.71,0,*77
1537222015.99,13947,20.25,74672.8,4.75,-19.61,-19.91,0,*7C
1537222017.25,13948,20.25,74672.8,4.75,-19.71,-19.85,0,*77
1537222018.5,13949,20.25,74674.8,4.73,-19.57,-19.61,0,*7E
1537222019.76,13950,20.25,74672.0,4.73,-19.41,-19.57,0,*74
1537222020.96,13951,20.25,74672.0,4.77,-19.51,-19.71,0,*74
1537222022.24,13952,20.25,74670.8,4.75,-19.61,-19.85,0,*7D
1537222023.47,13953,20.25,74672.0,4.75,-19.71,-19.91,0,*78
1537222024.72,13954,20.25,74672.0,4.77,-19.65,-19.85,0,*7D
1537222025.95,13955,20.25,74676.5,4.75,-19.71,-19.75,0,*74
1537222027.23,13956,20.25,74674.3,4.75,-19.57,-19.85,0,*7C
1537222028.51,13957,20.25,74670.8,4.75,-19.61,-19.85,0,*78
1537222029.74,13958,20.25,74670.5,4.77,-19.57,-19.71,0,*7B
1537222030.97,13959,20.25,74670.8,4.75,-19.71,-19.91,0,*72
1537222032.2,13960,20.25,74670.8,4.75,-19.75,-19.91,0,*7C
1537222033.45,13961,20.25,74672.0,4.75,-19.85,-20.05,0,*75
1537222034.67,13962,20.25,74672.0,4.75,-19.75,-19.95,0,*7A
1537222035.9,13963,20.25,74674.8,4.75,-20.05,-20.05,0,*75
1537222037.12,13964,20.25,74672.8,4.75,-19.91,-20.05,0,*75
1537222038.32,13965,20.25,74674.5,4.73,-19.91,-19.95,0,*71
1537222039.53,13966,20.25,74672.0,4.73,-19.91,-19.95,0,*72
1537222040.73,13967,20.25,74672.3,4.73,-19.91,-20.05,0,*70
1537222041.92,13968,20.25,74674.5,4.73,-19.91,-20.05,0,*7F
1537222043.15,13969,20.25,74674.8,4.73,-19.95,-20.19,0,*77
1537222044.37,13970,20.25,74674.0,4.73,-20.09,-20.35,0,*7E
1537222045.57,13971,20.25,74674.8,4.73,-19.95,-20.05,0,*73
1537222046.8,13972,20.25,74672.0,4.73,-19.57,-19.71,0,*77
1537222048.03,13973,20.25,74674.0,4.73,-19.47,-19.61,0,*76
1537222049.25,13974,20.25,74672.5,4.73,-19.41,-19.47,0,*73
1537222050.48,13975,20.25,74674.3,4.73,-19.57,-19.71,0,*70
1537222051.71,13976,20.25,74674.8,4.73,-19.57,-19.71,0,*73
1537222052.93,13977,20.25,74674.8,4.73,-19.57,-19.71,0,*72
1537222054.16,13978,20.25,74674.3,4.73,-19.61,-19.75,0,*7C
1537222055.37,13979,20.25,74674.0,4.73,-19.71,-19.91,0,*76
1537222056.59,13980,20.25,74672.8,4.73,-19.75,-19.85,0,*71
1537222057.79,13981,20.25,74678.8,4.73,-19.71,-19.91,0,*71
1537222059.04,13982,20.25,74672.3,4.73,-19.61,-19.85,0,*76
1537222060.27,13983,20.25,74674.0,4.73,-19.61,-19.75,0,*78
1537222061.5,13984,20.25,74674.3,4.73,-19.61,-19.75,0,*7F
1537222062.76,13985,20.25,74670.5,4.73,-19.57,-19.61,0,*7E
1537222063.99,13986,20.25,74674.0,4.73,-19.47,-19.57,0,*79
1537222065.22,13987,20.25,74670.3,4.73,-19.57,-19.71,0,*7D
1537222066.47,13988,20.25,74672.3,4.75,-19.57,-19.75,0,*70
1537222067.67,13989,20.25,74672.5,4.73,-19.75,-19.95,0,*79
1537222068.9,13990,20.25,74670.5,4.73,-19.61,-19.75,0,*7A
1537222070.1,13991,20.25,74672.8,4.73,-19.75,-19.95,0,*70
1537222071.3,13992,20.25,74674.3,4.73,-19.91,-20.05,0,*7A
1537222072.5,13993,20.25,74674.8,4.73,-19.71,-19.75,0,*78
1537222073.73,13994,20.25,74676.8,4.73,-19.57,-19.75,0,*7B
1537222074.99,13995,20.25,74670.8,4.73,-19.57,-19.85,0,*75
1537222076.24,13996,20.25,74672.5,4.73,-19.57,-19.61,0,*7C
1537222077.45,13997,20.25,74670.5,4.73,-19.71,-19.95,0,*72
1537222078.71,13998,20.25,74672.3,4.75,-19.57,-19.75,0,*71
1537222079.96,13999,20.25,74672.8,4.73,-19.31,-19.41,0,*71
1537222081.22,14000,20.25,74672.5,4.75,-19.47,-19.57,0,*7F
1537222082.45,14001,20.25,74674.5,4.73,-19.57,-19.71,0,*7D
1537222083.7,14002,20.25,74674.3,4.73,-19.61,-19.85,0,*70
1537222084.93,14003,20.25,74670.8,4.73,-19.71,-19.85,0,*70
1537222086.15,14004,20.25,74674.0,4.73,-19.71,-19.85,0,*77
1537222087.38,14005,20.25,74674.3,4.73,-19.57,-19.75,0,*7D
1537222088.58,14006,20.25,74674.0,4.73,-19.71,-19.91,0,*70
1537222089.81,14007,20.25,74672.5,4.73,-19.61,-19.75,0,*7A
1537222091.09,14008,20.25,74672.8,4.75,-19.57,-19.61,0,*73
1537222092.29,14009,20.25,74674.8,4.73,-19.47,-19.71,0,*74
1537222093.52,14010,20.25,74672.0,4.73,-19.61,-19.91,0,*76
1537222094.74,14011,20.25,74672.8,4.73,-19.75,-19.85,0,*77
1537222095.97,14012,20.25,74670.0,4.73,-19.85,-19.95,0,*7A
1537222097.16,14013,20.25,74670.5,4.73,-20.05,-20.09,0,*76
1537222098.37,14014,20.25,74672.8,4.73,-19.95,-20.09,0,*72
1537222099.56,14015,20.25,74672.5,4.73,-20.05,-20.09,0,*70
1537222100.79,14016,20.25,74670.3,4.73,-20.19,-20.39,0,*7D
1537222101.99,14017,20.25,74674.0,4.73,-20.09,-20.25,0,*70